Kars, Turkey

9:24 AM +03 on October 19, 2017 (GMT +0300)
Kars

Weather History for LTCF - October, 2012

Change the Weather History Date:

Saturday, October 13, 2012

  Actual Average Record
Temperature  
Mean Temperature 44 °F -  
Max Temperature 58 °F 50 °F - ()
Min Temperature 30 °F 29 °F - ()
Degree Days  
Heating Degree Days 21    
Moisture  
Dew Point 32 °F    
Average Humidity 64    
Maximum Humidity 93    
Minimum Humidity 22    
Precipitation  
Precipitation 0.00 in 0.04 in - ()
Sea Level Pressure  
Sea Level Pressure 30.28 in    
Wind  
Wind Speed 1 mph ()    
Max Wind Speed 7 mph    
Max Gust Speed -    
Visibility 6.2 miles    
Events      
T = Trace of Precipitation, MM = Missing Value Source: Averaged Metar Reports

Daily Weather History Graph

Daily Weather History Graph

Search for Another Location

Airport or City:

Trip Planner

Search our weather history database for the weather conditions in past years. The results will help you decide how hot, cold, wet, or windy it might be!

Date:

Astronomy

Oct. 13, 2012 Rise Set
Actual Time 6:16 AM EEST 5:30 PM EEST
Civil Twilight 5:49 AM EEST 5:57 PM EEST
Nautical Twilight 5:17 AM EEST 6:29 PM EEST
Astronomical Twilight 4:45 AM EEST 7:00 PM EEST
Moon 3:40 AM EEST (10/13) 4:01 PM EEST (10/13)
Length of Visible Light 12h 08m
Length of Day
11h 13m
Waning Crescent, 6% of the Moon is Illuminated
Oct 13
Waning Crescent
Oct 15
New
Oct 22
First Quarter
Oct 29
Full
Nov 7
Last Quarter

Hourly Weather History & Observations

Time (EEST) Temp. Windchill Dew Point Humidity Pressure Visibility Wind Dir Wind Speed Gust Speed Precip Events Conditions
12:50 AM 35.6 °F 32.8 °F 30.2 °F 81% 30.27 in - West 3.5 mph - N/A   Clear
1:50 AM 33.8 °F - 30.2 °F 87% 30.24 in - ESE 2.3 mph - N/A   Clear
3:00 AM 35 °F - 30 °F 74%  in 6 mi Calm Calm - -  
3:50 AM 32.0 °F - 28.4 °F 87% 30.27 in - Calm Calm - N/A   Clear
4:50 AM 33.8 °F - 30.2 °F 87% 30.27 in - Calm Calm - N/A   Clear
5:50 AM 32.0 °F - 28.4 °F 87% 30.27 in - Calm Calm - N/A   Clear
6:50 AM 32.0 °F - 30.2 °F 93% 30.27 in - Calm Calm - N/A   Clear
7:50 AM 37.4 °F 32.8 °F 33.8 °F 87% 30.30 in - NW 5.8 mph - N/A   Clear
8:50 AM 42.8 °F - 32.0 °F 66% 30.30 in - Calm Calm - N/A   Clear
9:00 AM 42 °F - 33 °F 60%  in 6 mi Calm Calm - -  
9:50 AM 50.0 °F - 33.8 °F 54% 30.30 in - Calm Calm - N/A   Clear
10:50 AM 51.8 °F - 30.2 °F 44% 30.30 in 6.2 mi Calm Calm - N/A   Partly Cloudy
11:50 AM 53.6 °F - 30.2 °F 41% 30.30 in 6.2 mi West 4.6 mph - N/A   Partly Cloudy
12:50 PM 55.4 °F - 32.0 °F 41% 30.27 in 6.2 mi Variable 1.2 mph - N/A   Partly Cloudy
1:50 PM 57.2 °F - 28.4 °F 33% 30.27 in 6.2 mi Variable 2.3 mph - N/A   Partly Cloudy
2:50 PM 59.0 °F - 30.2 °F 34% 30.27 in 6.2 mi Variable 2.3 mph - N/A   Partly Cloudy
3:00 PM 58 °F - 29 °F 22%  in 6 mi NW 2.3 mph - -   Scattered Clouds
3:50 PM 57.2 °F - 30.2 °F 36% 30.27 in 6.2 mi Variable 1.2 mph - N/A   Partly Cloudy
4:50 PM 55.4 °F - 30.2 °F 38% 30.24 in 6.2 mi Calm Calm - N/A   Scattered Clouds
5:50 PM 50.0 °F - 41.0 °F 71% 30.27 in 6.2 mi East 5.8 mph - N/A   Partly Cloudy
6:50 PM 48.2 °F - 37.4 °F 66% 30.27 in 6.2 mi ESE 6.9 mph - N/A   Partly Cloudy
7:50 PM 46.4 °F 45.2 °F 37.4 °F 71% 30.30 in 6.2 mi NW 3.5 mph - N/A   Scattered Clouds
8:50 PM 44.6 °F - 39.2 °F 81% 30.30 in 6.2 mi Calm Calm - N/A   Scattered Clouds
9:00 PM 44 °F - 39 °F 76%  in 6 mi Calm Calm - -   Partly Cloudy
10:50 PM 41.0 °F - 33.8 °F 76% 30.30 in 6.2 mi Calm Calm - N/A   Partly Cloudy
11:50 PM 41.0 °F - 35.6 °F 81% 30.30 in 6.2 mi Calm Calm - N/A   Partly Cloudy